Location: ČR
(50.0000°N, 15.0000°E)
Time: 00:07:26
(UTC+01:00)

ARIANE 6 FM1 Upper Stage - Pass Details

Date: 22 January 2026
Orbit: 522 x 609 km, 62.0° (Epoch: 15 February)

Event Time Altitude Azimuth Distance (km) Brightness Sun altitude
Rises 18:33:39 0° 197° (SSW) 2,705 6.5 -18.3°
Reaches altitude 10° 18:36:02 10° 187° (S) 1,802 5.4 -18.7°
Enters shadow 18:39:04 30° 142° (SE) 979 3.6 -19.2°
